Weather History for KBRO - August, 2013

Change the Weather History Date:

Wednesday, August 7, 2013

  Actual Average Record
Temperature  
Mean Temperature 89 °F 86 °F  
Max Temperature 98 °F 95 °F 101 °F (1940)
Min Temperature 79 °F 76 °F 69 °F (1894)
Degree Days  
Heating Degree Days 0 0  
Month to date heating degree days 0 0  
Since 1 June heating degree days 0 0  
Since 1 July heating degree days 0 0  
Cooling Degree Days 24 21  
Month to date cooling degree days 163 147  
Year to date cooling degree days 2540 2425  
Since 1 June cooling degree days 1418 1332  
Growing Degree Days 39 (Base 50)    
Moisture  
Dew Point 75 °F    
Average Humidity 65    
Maximum Humidity 91    
Minimum Humidity 39    
Precipitation  
Precipitation 0.00 in 0.05 in 2.11 in (1957)
Month to date precipitation 0.00 0.40  
Year to date precipitation 8.58 12.77  
Sea Level Pressure  
Sea Level Pressure 29.89 in    
Wind  
Wind Speed 17 mph (SSE)    
Max Wind Speed 26 mph    
Max Gust Speed 32 mph    
Visibility 10 miles    
Events      
T = Trace of Precipitation, MM = Missing Value Source: NWS Daily Summary

Daily Weather History Graph

Daily Weather History Graph

Search for Another Location

Airport or City:

Trip Planner

Search our weather history database for the weather conditions in past years. The results will help you decide how hot, cold, wet, or windy it might be!

Date:

Astronomy

Aug. 07, 2013 Rise Set
Actual Time 6:58 AM CDT 8:11 PM CDT
Civil Twilight 6:34 AM CDT 8:36 PM CDT
Nautical Twilight 6:05 AM CDT 9:04 PM CDT
Astronomical Twilight 5:35 AM CDT 9:34 PM CDT
Moon 7:37 AM CDT (8/7) 8:33 PM CDT (8/7)
Length of Visible Light 14h 01m
Length of Day
13h 12m
New Moon, 1% of the Moon is Illuminated
Aug 7
New Moon
Aug 14
First Quarter
Aug 20
Full
Aug 28
Last Quarter
Sep 5
New

Hourly Weather History & Observations

Time (CDT) Temp. Heat Index Dew Point Humidity Pressure Visibility Wind Dir Wind Speed Gust Speed Precip Events Conditions
12:53 AM 82.0 °F 90.2 °F 77.0 °F 85% 29.94 in 10.0 mi SSE 13.8 mph - N/A   Partly Cloudy
1:53 AM 82.0 °F 91.0 °F 78.1 °F 88% 29.94 in 10.0 mi South 12.7 mph - N/A   Partly Cloudy
2:53 AM 81.0 °F 87.9 °F 77.0 °F 88% 29.93 in 10.0 mi South 12.7 mph - N/A   Clear
3:53 AM 81.0 °F 87.9 °F 77.0 °F 88% 29.92 in 10.0 mi SSE 11.5 mph - N/A   Scattered Clouds
4:53 AM 81.0 °F 87.9 °F 77.0 °F 88% 29.91 in 10.0 mi South 10.4 mph - N/A   Clear
5:53 AM 80.1 °F 85.8 °F 77.0 °F 90% 29.90 in 10.0 mi SSE 10.4 mph - N/A   Clear
6:53 AM 80.1 °F 85.8 °F 77.0 °F 90% 29.91 in 10.0 mi SSE 8.1 mph - N/A   Clear
7:53 AM 81.0 °F 87.9 °F 77.0 °F 88% 29.90 in 10.0 mi SSE 12.7 mph - N/A   Clear
8:53 AM 86.0 °F 96.9 °F 77.0 °F 74% 29.91 in 10.0 mi South 18.4 mph 28.8 mph N/A   Clear
9:53 AM 90.0 °F 100.2 °F 75.0 °F 61% 29.91 in 10.0 mi South 23.0 mph 29.9 mph N/A   Scattered Clouds
10:53 AM 91.9 °F 103.2 °F 75.0 °F 58% 29.92 in 10.0 mi South 18.4 mph 27.6 mph N/A   Scattered Clouds
11:53 AM 95.0 °F 104.5 °F 73.0 °F 49% 29.91 in 10.0 mi South 23.0 mph 32.2 mph N/A   Clear
12:53 PM 97.0 °F 107.0 °F 73.0 °F 46% 29.91 in 10.0 mi South 21.9 mph 26.5 mph N/A   Clear
1:53 PM 98.1 °F 105.0 °F 70.0 °F 40% 29.89 in 10.0 mi South 20.7 mph 28.8 mph N/A   Clear
2:53 PM 97.0 °F 104.8 °F 71.1 °F 43% 29.87 in 10.0 mi SSE 21.9 mph 29.9 mph N/A   Clear
3:53 PM 97.0 °F 103.5 °F 70.0 °F 41% 29.86 in 10.0 mi SSE 23.0 mph 27.6 mph N/A   Clear
4:53 PM 93.9 °F 103.4 °F 73.0 °F 51% 29.84 in 10.0 mi SE 23.0 mph 29.9 mph N/A   Partly Cloudy
5:51 PM 91.4 °F 100.1 °F 73.4 °F 55% 29.83 in 10.0 mi SSE 21.9 mph 29.9 mph N/A   Mostly Cloudy
5:53 PM 91.9 °F 101.3 °F 73.9 °F 55% 29.83 in 10.0 mi SE 23.0 mph 29.9 mph N/A   Mostly Cloudy
6:27 PM 89.6 °F 99.8 °F 75.2 °F 62% 29.83 in 10.0 mi SE 18.4 mph 27.6 mph N/A   Scattered Clouds
6:53 PM 89.1 °F 99.1 °F 75.0 °F 63% 29.83 in 10.0 mi SE 21.9 mph 31.1 mph N/A   Clear
7:53 PM 84.9 °F 94.1 °F 75.9 °F 74% 29.84 in 10.0 mi SE 17.3 mph 26.5 mph N/A   Clear
8:53 PM 84.0 °F 93.7 °F 77.0 °F 79% 29.86 in 10.0 mi SE 15.0 mph - N/A   Clear
9:53 PM 82.9 °F 92.8 °F 78.1 °F 85% 29.88 in 10.0 mi SE 12.7 mph - N/A   Clear
10:53 PM 82.9 °F 92.8 °F 78.1 °F 85% 29.90 in 10.0 mi SE 13.8 mph - N/A   Scattered Clouds
11:07 PM 82.4 °F 92.4 °F 78.8 °F 89% 29.90 in 10.0 mi SE 11.5 mph - N/A   Mostly Cloudy
11:53 PM 82.9 °F 92.8 °F 78.1 °F 85% 29.91 in 10.0 mi SSE 13.8 mph - N/A   Mostly Cloudy